Location: Al Mulaqqa?ah
(24.1833°N, 32.8833°E)
Time: 13:42:51
(UTC+00:00)

H-2A R/B - Pass Details

Date: 26 September 2021
Orbit: 734 x 836 km, 98.2° (Epoch: 23 October)

Event Time Altitude Azimuth Distance (km) Brightness Sun altitude
Rises 17:01:46 0° 197° (SSW) 3,162 5.3 -19.3°
Reaches altitude 10° 17:04:28 10° 212° (SSW) 2,253 4.7 -19.9°
Maximum altitude 17:08:18 22° 263° (W) 1,587 4.4 -20.8°
Drops below altitude 10° 17:12:13 10° 314° (NW) 2,302 5.2 -21.7°
Sets 17:15:02 0° 329° (NNW) 3,250 5.8 -22.3°
